Knox, IN

9:06 PM CDT on August 16, 2017 (GMT -0500)
Starke County

Weather History for KOXI - May, 2013

Change the Weather History Date:

Friday, May 10, 2013

  Actual Average (KRCR) Record (KRCR)
Temperature  
Mean Temperature 51 °F -  
Max Temperature 82 °F 67 °F 80 °F (2015)
Min Temperature 41 °F 45 °F 44 °F (2013)
Degree Days  
Heating Degree Days 14    
Growing Degree Days 1 (Base 50)    
Moisture  
Dew Point 50 °F    
Average Humidity 97    
Maximum Humidity 100    
Minimum Humidity 91    
Precipitation  
Precipitation 0.00 in - - ()
Sea Level Pressure  
Sea Level Pressure 29.86 in    
Wind  
Wind Speed 11 mph (WNW)    
Max Wind Speed 16 mph    
Max Gust Speed 23 mph    
Visibility 6 miles    
Events      
Averages and records for this station are not official NWS values.
T = Trace of Precipitation, MM = Missing Value Source: NWS Daily Summary

Daily Weather History Graph

Daily Weather History Graph

Search for Another Location

Airport or City:

Trip Planner

Search our weather history database for the weather conditions in past years. The results will help you decide how hot, cold, wet, or windy it might be!

Date:

Astronomy

May. 10, 2013 Rise Set
Actual Time 5:32 AM CDT 7:53 PM CDT
Civil Twilight 5:01 AM CDT 8:24 PM CDT
Nautical Twilight 4:23 AM CDT 9:03 PM CDT
Astronomical Twilight 3:41 AM CDT 9:46 PM CDT
Moon 5:56 AM CDT (5/10) 8:43 PM CDT (5/10)
Length of Visible Light 15h 22m
Length of Day
14h 20m
New Moon, 0% of the Moon is Illuminated
May 10
New Moon
May 17
First Quarter
May 24
Full
May 31
Last Quarter
Jun 8
New

Hourly Weather History & Observations

Time (CDT) Temp. Windchill Dew Point Humidity Pressure Visibility Wind Dir Wind Speed Gust Speed Precip Events Conditions
12:15 AM 59.5 °F - 59.4 °F 99% 29.82 in 5.0 mi SE 10.4 mph - N/A   Overcast
12:35 AM 59.5 °F - 59.4 °F 99% 29.82 in 7.0 mi South 9.2 mph - N/A   Overcast
12:55 AM 59.7 °F - 59.4 °F 99% 29.82 in 10.0 mi South 9.2 mph - N/A   Overcast
1:15 AM 59.9 °F - 59.5 °F 99% 29.81 in 7.0 mi South 5.8 mph - N/A   Mostly Cloudy
1:35 AM 59.9 °F - 59.5 °F 99% 29.80 in 7.0 mi SSW 5.8 mph - N/A   Overcast
1:55 AM 59.9 °F - 59.7 °F 99% 29.79 in 5.0 mi SSW 6.9 mph - N/A   Overcast
2:15 AM 59.9 °F - 59.7 °F 99% 29.79 in 5.0 mi SSW 8.1 mph - N/A   Scattered Clouds
2:35 AM 60.3 °F - 60.1 °F 99% 29.79 in 5.0 mi SSW 11.5 mph - N/A   Overcast
2:55 AM 60.4 °F - 60.3 °F 99% 29.79 in 7.0 mi SSW 11.5 mph - N/A   Overcast
3:15 AM 60.8 °F - 60.8 °F 100% 29.79 in 5.0 mi SW 9.2 mph - N/A   Overcast
3:35 AM 61.2 °F - 61.0 °F 99% 29.79 in 7.0 mi SW 10.4 mph - N/A   Overcast
3:55 AM 61.2 °F - 60.8 °F 99% 29.78 in 7.0 mi SSW 10.4 mph 16.1 mph N/A   Overcast
4:15 AM 61.0 °F - 60.4 °F 98% 29.78 in 7.0 mi SW 11.5 mph 17.3 mph N/A   Mostly Cloudy
4:35 AM 60.8 °F - 60.3 °F 98% 29.78 in 7.0 mi SW 10.4 mph - N/A   Mostly Cloudy
4:55 AM 61.0 °F - 60.4 °F 98% 29.77 in 7.0 mi SW 10.4 mph 17.3 mph N/A   Overcast
5:15 AM 60.8 °F - 60.1 °F 97% 29.77 in 7.0 mi SW 9.2 mph - N/A   Overcast
5:35 AM 60.8 °F - 59.9 °F 97% 29.78 in 10.0 mi SW 9.2 mph - N/A   Overcast
5:55 AM 60.4 °F - 59.9 °F 98% 29.78 in 7.0 mi SW 10.4 mph - N/A   Overcast
6:15 AM 60.4 °F - 59.9 °F 98% 29.78 in 7.0 mi SW 10.4 mph - N/A   Overcast
6:35 AM 60.4 °F - 59.9 °F 98% 29.79 in 5.0 mi SW 10.4 mph - N/A   Overcast
6:55 AM 60.6 °F - 59.9 °F 97% 29.80 in 7.0 mi SW 10.4 mph - N/A   Overcast
7:15 AM 60.6 °F - 59.9 °F 97% 29.80 in 5.0 mi SW 11.5 mph - N/A   Overcast
7:35 AM 60.8 °F - 59.9 °F 97% 29.81 in 5.0 mi SW 9.2 mph - N/A   Overcast
7:55 AM 61.0 °F - 60.1 °F 97% 29.80 in 5.0 mi SW 10.4 mph - N/A   Overcast
8:15 AM 61.3 °F - 60.3 °F 96% 29.81 in 5.0 mi SW 9.2 mph - N/A   Overcast
8:35 AM 58.6 °F - 57.0 °F 94% 29.82 in 2.0 mi NW 15.0 mph 19.6 mph N/A   Overcast
8:55 AM 50.7 °F - 50.0 °F 97% 29.83 in 2.0 mi NW 13.8 mph - N/A   Overcast
9:15 AM 49.5 °F - 49.1 °F 99% 29.84 in 3.0 mi NW 16.1 mph - N/A   Overcast
9:35 AM 49.3 °F - 48.7 °F 98% 29.84 in 7.0 mi NW 13.8 mph - N/A   Overcast
9:55 AM 49.3 °F - 48.4 °F 97% 29.84 in 7.0 mi NW 16.1 mph - N/A   Overcast
10:15 AM 49.1 °F - 48.2 °F 97% 29.86 in 5.0 mi WNW 6.9 mph - N/A   Overcast
10:35 AM 48.9 °F - 48.0 °F 97% 29.87 in 7.0 mi West 8.1 mph - N/A   Overcast
10:55 AM 49.1 °F - 48.0 °F 96% 29.87 in 10.0 mi West 10.4 mph - N/A   Overcast
11:15 AM 49.8 °F - 48.4 °F 95% 29.87 in 10.0 mi WNW 11.5 mph - N/A   Overcast
11:35 AM 50.7 °F - 49.1 °F 94% 29.87 in 10.0 mi WNW 11.5 mph - N/A   Overcast
11:55 AM 51.4 °F - 49.3 °F 92% 29.86 in 10.0 mi NW 12.7 mph - N/A   Overcast
12:15 PM 52.5 °F - 50.0 °F 91% 29.86 in 10.0 mi NW 15.0 mph 20.7 mph N/A   Overcast
12:35 PM 51.4 °F - 49.1 °F 92% 29.87 in 10.0 mi NW 15.0 mph - N/A   Overcast
12:55 PM 50.5 °F - 48.4 °F 92% 29.87 in 7.0 mi NW 11.5 mph - N/A   Overcast
1:15 PM 50.2 °F - 48.4 °F 94% 29.88 in 10.0 mi NW 12.7 mph - N/A   Overcast
1:35 PM 50.0 °F - 48.0 °F 93% 29.89 in 10.0 mi NW 12.7 mph 17.3 mph N/A   Overcast
1:55 PM 49.8 °F - 47.8 °F 93% 29.89 in 10.0 mi NW 13.8 mph - N/A   Overcast
2:15 PM 48.9 °F - 47.3 °F 94% 29.89 in 10.0 mi NW 12.7 mph 18.4 mph N/A   Overcast
2:35 PM 48.6 °F - 46.9 °F 94% 29.89 in 10.0 mi NW 12.7 mph - N/A   Overcast
2:55 PM 47.8 °F - 46.2 °F 94% 29.89 in 10.0 mi NW 16.1 mph 23.0 mph N/A   Overcast
3:15 PM 46.8 °F - 45.5 °F 95% 29.88 in 10.0 mi NW 15.0 mph - N/A   Overcast
3:35 PM 46.2 °F 39.5 °F 45.0 °F 95% 29.88 in 10.0 mi NW 16.1 mph 21.9 mph N/A   Overcast
3:55 PM 46.0 °F 39.6 °F 44.8 °F 95% 29.88 in 10.0 mi NNW 15.0 mph - N/A   Overcast
4:15 PM 45.9 °F 39.4 °F 44.6 °F 95% 29.88 in 7.0 mi NW 15.0 mph 20.7 mph N/A   Overcast
4:35 PM 45.9 °F 39.7 °F 44.6 °F 95% 29.88 in 10.0 mi NNW 13.8 mph 20.7 mph N/A   Overcast
4:55 PM 46.4 °F 40.1 °F 44.6 °F 93% 29.88 in 10.0 mi NNW 15.0 mph - N/A   Overcast
5:15 PM 46.0 °F 39.6 °F 44.4 °F 94% 29.88 in 10.0 mi NNW 15.0 mph - N/A   Overcast
5:35 PM 45.5 °F 38.9 °F 44.4 °F 96% 29.89 in 7.0 mi NNW 15.0 mph - N/A   Overcast
5:55 PM 45.5 °F 39.6 °F 44.4 °F 96% 29.89 in 10.0 mi NNW 12.7 mph - N/A   Overcast
6:15 PM 45.3 °F 39.3 °F 44.4 °F 97% 29.89 in 10.0 mi NW 12.7 mph - N/A   Overcast
6:35 PM 45.0 °F 39.3 °F 43.9 °F 96% 29.90 in 7.0 mi NW 11.5 mph 17.3 mph N/A   Overcast
6:55 PM 44.4 °F 38.2 °F 43.5 °F 97% 29.91 in 5.0 mi NW 12.7 mph - N/A   Overcast
7:15 PM 43.5 °F 36.4 °F 42.8 °F 97% 29.91 in 2.0 mi NW 15.0 mph - N/A   Overcast
7:35 PM 42.8 °F 36.6 °F 42.4 °F 99% 29.92 in 3.0 mi NW 11.5 mph 17.3 mph N/A   Overcast
7:55 PM 42.6 °F 35.2 °F 42.1 °F 98% 29.93 in 1.5 mi WNW 15.0 mph - N/A   Overcast
8:15 PM 42.1 °F 35.2 °F 41.7 °F 99% 29.94 in 1.2 mi NW 12.7 mph - N/A   Overcast
8:35 PM 41.9 °F 35.0 °F 41.4 °F 98% 29.93 in 2.0 mi NW 12.7 mph - N/A   Overcast
8:55 PM 41.5 °F 35.0 °F 41.2 °F 99% 29.94 in 1.8 mi NW 11.5 mph - N/A   Overcast
9:15 PM 41.5 °F 35.4 °F 41.2 °F 99% 29.94 in 1.0 mi NNW 10.4 mph - N/A   Overcast
9:35 PM 41.5 °F 35.0 °F 41.2 °F 99% 29.94 in 1.0 mi NNW 11.5 mph - N/A   Overcast
9:55 PM 41.4 °F 36.2 °F 41.0 °F 99% 29.95 in 1.2 mi NW 8.1 mph - N/A   Overcast
10:15 PM 41.5 °F 36.4 °F 41.2 °F 99% 29.95 in 1.2 mi NW 8.1 mph - N/A   Overcast
10:35 PM 41.4 °F 35.7 °F 41.2 °F 99% 29.95 in 1.2 mi NNW 9.2 mph - N/A   Overcast
10:55 PM 41.4 °F 36.2 °F 41.2 °F 99% 29.94 in 1.8 mi NNW 8.1 mph - N/A   Overcast
11:15 PM 41.5 °F 36.4 °F 41.2 °F 99% 29.94 in 2.5 mi NW 8.1 mph - N/A   Overcast
11:35 PM 41.5 °F 35.4 °F 41.2 °F 99% 29.94 in 3.0 mi NW 10.4 mph - N/A   Overcast
11:55 PM 41.5 °F 36.4 °F 41.4 °F 99% 29.93 in 3.0 mi NW 8.1 mph - N/A   Overcast